Presure
99 132 188 182 162 169 184 171 107 168 95 86 147 77 114 110 83 79 83 82 73 77 77 79 79 76 81 80 82 83 82 84 119 133 145 148 157 154 99 100 147 115 100
136 123 97 188 170 150 130 143 117 117 151 93 164 136 111 118 89 81 73 79 81 75 85 82 78 77 74 74 78 79 83 88 80 143 148 150 147 134 103 111 91 109 97
140 106 208 96 130 167 134 144 126 133 122 152 119 85 127 103 108 77 90 80 74 79 76 71 79 75 72 73 80 76 79 84 88 81 88 164 160 159 136 106 176 101 97
107 102 101 105 99 99 123 152 185 114 115 120 172 134 115 107 100 109 72 75 76 76 75 78 76 96 70 72 81 82 80 83 82 82 93 94 182 131 126 124 115 111 115
98 102 133 103 188 102 101 115 121 167 118 109 103 121 109 109 106 110 100 83 93 75 70 74 77 74 77 97 83 84 76 77 76 79 88 81 83 159 154 118 107 111 106
163 95 101 173 104 105 103 98 103 103 109 115 116 108 108 113 114 119 117 115 83 75 78 74 77 75 74 78 80 84 123 78 76 77 77 81 106 81 88 83 187 159 109
86 156 125 120 123 106 103 102 105 103 105 104 122 125 112 127 121 84 93 88 110 114 107 111 100 72 72 76 75 78 76 77 74 73 76 80 78 77 87 93 87 102 111
178 88 82 103 102 160 101 104 106 99 103 104 104 105 130 109 115 114 136 89 100 109 110 78 79 80 103 82 72 73 76 78 77 82 83 74 78 79 81 84 118 85 163
140 83 200 143 90 91 121 126 129 107 97 106 104 106 104 114 111 110 109 109 110 110 110 109 103 78 78 79 87 93 86 80 81 75 76 77 82 79 83 83 87 89 89
204 213 195 100 95 189 181 98 97 95 107 110 102 103 105 101 102 112 110 113 114 104 109 102 90 92 108 109 78 78 78 80 77 78 79 112 76 78 81 92 88 83 88
188 167 207 195 187 119 155 180 89 156 100 100 131 104 103 101 102 104 104 105 107 104 104 103 110 115 103 98 102 99 83 107 109 123 109 83 77 80 113 87 82 84 92
143 150 125 157 205 184 189 87 89 151 94 118 105 150 121 104 102 104 107 104 105 106 113 106 105 103 103 111 109 104 104 105 122 133 142 121 160 154 87 141 81 86 87
201 206 203 187 196 205 206 201 190 182 89 179 96 98 107 123 124 106 105 106 108 114 107 103 104 109 107 105 111 106 106 109 108 152 108 155 117 118 142 154 144 156 148
194 186 201 187 200 193 186 135 104 146 198 102 85 176 94 94 107 97 121 103 104 101 107 111 108 108 105 106 111 105 109 108 107 104 111 107 109 108 125 78 152 120 94
180 207 194 189 172 212 194 187 194 198 200 193 183 98 89 93 92 100 93 149 120 108 102 106 104 109 107 106 104 105 110 109 108 126 105 107 107 109 117 133 130 153 157
202 181 147 195 215 156 193 219 191 183 193 190 194 192 189 150 95 100 90 90 100 101 106 126 104 106 102 105 108 109 107 105 107 110 111 109 108 135 132 123 167 164 157
148 222 239 221 199 187 178 151 225 208 196 190 198 190 179 131 161 179 113 95 95 100 97 99 145 103 107 96 103 105 107 106 106 109 107 111 131 110 114 132 125 146 169
188 187 191 214 220 202 115 136 132 184 202 186 186 202 185 189 178 180 94 105 109 119 93 97 97 104 102 98 102 103 103 108 107 107 109 108 104 106 105 112 128 118 123
116 162 187 161 212 218 158 197 151 195 199 190 195 182 203 195 182 188 178 189 172 184 164 127 95 98 101 104 107 105 105 105 103 103 103 107 106 106 111 114 124 113 112
162 184 157 145 198 180 207 186 165 194 181 109 165 182 187 187 199 185 188 179 179 171 152 106 126 179 106 93 91 101 102 108 103 106 102 105 104 104 106 107 109 119 131
164 176 181 183 170 189 193 195 212 187 194 203 183 174 168 203 145 196 193 182 173 186 174 166 178 100 183 178 114 105 97 97 106 107 103 104 106 105 105 112 105 110 125
188 183 180 181 182 183 187 196 180 203 186 188 190 197 182 166 193 195 189 193 191 177 180 175 174 170 168 132 165 145 142 134 186 109 94 97 107 101 112 104 128 104 107
189 157 184 182 186 185 186 193 195 192 199 205 193 178 215 195 181 177 183 189 137 127 125 161 179 174 177 174 172 163 127 105 104 102 156 104 96 102 103 111 105 122 118
186 189 192 193 192 191 187 189 191 192 188 188 202 203 203 184 202 186 181 178 196 204 203 174 153 196 190 174 181 175 171 179 176 129 117 170 185 85 102 93 117 105 106
189 182 177 182 191 193 193 195 198 198 202 201 201 196 213 211 208 175 206 154 184 185 159 126 118 187 196 193 167 187 175 178 182 178 91 178 191 97 196 181 95 99 103
190 188 188 187 189 192 192 193 196 203 203 204 207 210 211 211 212 202 208 188 197 196 186 181 186 215 205 187 122 126 127 142 164 186 176 125 172 185 183 184 93 95 102
Wind_Speed
18 25 41 43 41 38 32 36 31 33 22 20 35 19 32 31 19 16 17 15 12 11 10 9 6 4 4 3 6 5 5 6 10 13 15 15 17 16 5 4 10 3 1
29 27 18 43 47 36 36 41 37 36 37 25 37 37 32 34 25 21 14 15 15 12 13 10 9 7 6 4 1 2 2 1 2 17 18 18 18 15 8 9 3 6 3
30 28 47 21 32 46 40 35 36 37 35 38 36 27 40 31 33 21 26 19 16 16 14 13 11 10 9 7 6 5 3 2 3 2 1 24 23 22 16 10 18 7 6
29 25 23 26 26 25 36 32 44 37 36 36 44 40 38 35 31 34 20 20 20 19 17 16 15 20 13 12 11 10 8 7 4 3 5 5 20 12 11 16 11 11 11
26 28 32 27 53 28 28 33 31 44 37 36 37 40 37 37 35 37 33 27 29 24 21 21 21 19 18 19 15 15 11 8 7 6 8 7 9 18 17 10 10 13 13
32 26 30 49 32 31 32 32 33 34 36 39 39 39 38 38 39 39 37 35 33 29 28 26 27 24 22 21 19 20 21 14 12 9 9 10 15 12 12 12 20 19 15
27 42 38 37 37 37 35 37 37 35 36 36 42 43 41 43 43 39 37 37 36 34 32 35 36 29 26 26 22 22 21 19 17 13 13 13 13 13 14 14 15 13 18
41 32 25 34 37 45 38 40 40 40 41 41 42 42 46 45 44 41 44 40 42 36 34 41 40 37 33 32 27 28 28 25 22 21 21 16 16 16 17 17 20 16 24
38 32 59 45 34 38 45 55 55 46 45 46 44 45 45 47 47 43 43 43 41 39 36 35 37 40 38 36 38 38 34 31 28 23 22 21 23 20 21 20 21 20 18
41 50 53 48 46 56 53 42 45 45 49 51 48 47 47 47 48 50 48 47 44 45 42 46 49 48 39 39 38 37 35 35 30 30 29 32 23 22 23 25 25 21 22
43 46 54 62 59 49 52 54 46 53 50 50 56 52 52 51 53 54 52 49 49 50 48 48 44 43 47 50 47 46 42 41 39 38 39 31 27 27 33 29 26 26 28
48 49 49 53 65 65 65 47 50 62 53 57 55 68 62 57 55 56 56 53 51 50 52 49 49 50 50 49 48 47 46 45 43 41 43 37 43 41 35 38 29 31 31
41 46 52 54 57 65 74 72 63 66 55 66 56 56 60 67 68 62 58 58 57 59 54 56 54 54 54 54 52 51 50 48 45 49 43 47 40 41 42 43 40 41 40
45 48 53 55 59 61 63 60 60 73 73 64 54 72 59 60 65 57 67 61 61 58 59 58 61 58 57 56 57 55 55 52 49 47 46 47 45 45 44 34 45 40 37
53 52 53 57 60 64 65 67 68 71 75 78 78 66 62 63 62 66 58 77 71 66 62 64 61 63 62 60 60 59 57 56 55 54 50 50 48 49 48 47 44 47 46
43 54 61 56 60 66 64 73 73 74 76 80 83 84 85 81 70 71 63 60 65 65 68 75 65 65 65 65 65 62 61 60 58 57 54 54 52 51 49 50 55 54 51
54 45 50 57 67 68 70 71 76 78 79 82 86 89 89 78 86 92 80 71 67 70 68 66 84 67 69 63 67 65 64 63 61 62 57 55 57 53 54 49 51 49 57
52 52 55 55 60 71 72 72 78 74 82 86 88 93 95 97 96 98 71 80 81 82 71 73 71 73 70 66 70 68 66 66 66 64 61 57 57 56 57 55 52 54 52
70 61 57 65 56 62 70 80 81 81 85 85 91 93 93 100 101 104 100 103 98 102 100 90 76 75 75 75 76 73 72 70 67 65 62 62 59 60 58 59 57 58 56
70 70 72 70 62 74 66 78 77 88 91 82 97 92 98 101 102 108 109 106 106 103 102 80 94 107 83 73 69 75 73 76 69 68 64 66 64 62 63 60 60 61 59
76 78 75 74 78 70 75 75 75 91 92 92 100 101 105 102 99 108 112 113 110 115 110 107 108 83 112 111 89 84 76 71 74 70 69 70 71 65 64 67 62 63 62
85 85 84 83 82 81 81 80 94 82 96 100 103 104 108 112 108 111 115 116 120 117 118 115 115 113 112 95 110 99 100 96 110 77 70 67 73 69 73 65 74 61 63
91 85 92 92 91 90 89 89 89 91 91 92 101 109 104 115 116 115 115 107 105 100 97 113 122 120 120 119 117 112 97 87 87 80 100 75 73 75 68 73 68 73 68
100 100 99 99 99 99 97 96 96 96 97 102 100 105 107 115 121 123 123 123 123 125 125 123 110 131 130 125 127 122 119 119 119 99 89 111 109 63 77 64 77 69 68
106 105 103 105 108 109 108 108 108 106 106 105 105 108 106 111 114 124 126 113 130 129 124 104 99 134 132 132 120 134 126 127 127 124 78 121 122 79 109 105 69 70 70
113 113 114 114 116 117 118 117 116 118 116 114 112 112 111 110 113 124 123 127 134 138 137 135 134 133 139 137 103 101 98 104 118 133 126 100 114 122 110 107 72 71 74
Wind_Direction
232 226 228 229 232 227 218 218 218 219 227 228 232 215 209 213 217 216 211 205 205 202 195 190 193 179 144 138 119 116 108 98 239 249 244 239 239 242 219 210 260 236 220
235 237 224 228 231 222 225 226 224 222 225 235 227 219 217 215 222 224 219 218 221 222 224 217 203 202 201 206 228 138 135 128 71 253 244 238 242 241 229 237 348 238 283
237 233 220 229 230 236 231 222 226 224 224 227 227 231 215 224 221 231 223 225 227 233 230 234 224 228 226 228 249 240 253 207 235 316 198 242 240 243 245 243 259 256 287
240 237 233 233 231 229 235 223 213 233 232 226 231 222 226 227 230 225 231 236 236 232 240 239 242 237 238 244 248 246 246 264 257 261 248 221 244 247 258 254 259 252 252
247 240 227 236 231 235 231 228 224 216 236 237 236 230 232 235 230 231 234 237 238 235 241 242 242 243 244 247 254 255 239 237 244 268 265 286 297 251 252 254 250 255 248
220 247 243 230 243 238 237 232 231 230 235 238 238 243 245 242 240 239 240 239 237 237 240 235 245 241 241 246 246 256 244 240 236 242 262 283 253 299 290 304 256 257 252
264 225 238 238 242 239 241 240 238 234 236 235 236 236 245 243 243 232 234 238 240 238 234 233 241 237 235 240 242 247 246 244 239 234 249 263 270 275 285 278 293 277 259
226 257 244 247 244 231 244 243 243 239 237 235 232 235 240 244 245 243 241 235 242 248 247 238 240 240 245 239 236 240 246 247 244 251 257 250 259 269 279 284 270 290 256
239 258 224 240 246 246 243 243 241 245 243 241 238 238 236 239 246 242 240 242 242 244 243 247 246 241 243 243 248 251 249 252 254 247 248 251 261 259 269 273 281 283 287
223 220 230 249 250 239 240 238 242 245 244 245 245 244 243 242 245 248 244 244 245 241 241 240 243 245 248 250 249 249 248 250 253 255 257 266 254 260 267 271 277 279 284
232 235 226 231 242 251 244 241 250 237 246 245 239 244 246 243 245 246 245 243 243 244 244 243 244 243 246 247 247 248 253 257 259 254 254 258 262 265 259 270 274 280 281
258 246 258 238 231 239 242 251 249 241 250 243 244 243 245 246 245 248 249 249 247 247 248 248 250 249 250 250 250 249 251 254 259 257 253 259 251 252 264 259 271 273 277
252 244 238 240 234 234 236 240 239 238 251 234 247 246 243 247 248 246 247 249 250 249 246 249 248 248 250 253 253 252 251 251 255 246 260 250 262 261 258 256 260 257 260
251 249 249 244 239 237 240 247 250 245 237 249 250 238 248 251 247 250 247 245 247 247 250 247 250 250 249 251 252 256 255 256 254 254 258 262 263 264 266 262 255 262 268
259 253 251 249 253 238 240 241 240 241 240 239 240 248 249 250 253 249 250 250 248 245 246 248 247 249 252 251 253 254 255 257 257 255 257 258 259 265 267 262 266 259 259
260 255 260 250 246 254 248 237 239 240 239 241 243 240 241 245 249 251 253 251 249 249 247 248 247 246 250 251 253 253 254 255 257 257 256 259 259 258 259 264 254 256 259
262 261 259 251 250 247 251 255 240 240 238 238 239 240 241 245 244 244 250 251 251 249 251 253 248 248 245 252 252 253 254 256 257 257 257 257 255 261 263 258 262 258 254
261 261 258 257 253 246 260 256 259 247 242 244 241 238 239 240 243 243 250 248 250 250 251 252 254 252 250 250 250 251 251 251 254 257 258 257 260 262 265 265 259 264 263
249 260 260 262 260 256 254 247 252 243 246 245 243 244 239 240 241 242 243 242 245 245 248 251 251 252 253 250 249 251 250 250 250 253 256 257 257 261 263 264 260 266 267
267 269 255 258 259 255 257 249 254 245 247 259 244 246 242 241 242 240 242 244 243 243 249 248 253 248 248 253 254 255 254 251 254 251 254 254 255 255 259 260 264 263 259
270 268 267 265 255 260 256 254 257 245 244 247 247 244 244 244 252 238 241 242 245 244 244 245 244 245 246 250 249 250 254 254 255 254 254 252 254 254 254 258 257 261 260
272 271 270 268 266 262 262 260 250 257 249 246 244 245 246 246 245 243 242 240 241 244 243 244 244 246 247 247 250 249 252 253 252 250 254 257 256 259 256 255 257 257 261
275 270 271 270 269 267 264 263 261 255 256 254 252 248 249 245 245 245 245 246 252 251 251 247 244 246 246 246 246 248 250 246 247 249 249 251 255 258 255 253 255 257 256
277 276 275 274 273 271 268 266 262 260 254 254 255 252 253 250 246 246 247 245 245 243 243 246 251 241 243 247 245 246 247 249 251 253 248 252 246 245 255 252 254 256 257
278 277 275 275 276 274 273 271 270 267 265 262 259 254 258 254 251 249 244 251 246 246 253 250 251 244 241 241 250 245 246 246 247 249 244 253 255 246 247 247 253 256 257
278 278 278 277 277 276 275 273 273 272 269 268 266 265 261 257 254 248 249 250 244 244 246 247 246 243 242 243 250 251 250 252 247 245 249 249 252 254 249 246 247 250 255